Regional Weather Roundup
Issued by NWS

Home | Current Version | Previous Version | Graphics & Text | Print | Product List | Glossary Off
Versions: 1 2 3 4 5 6 7 8 9 10 11 12 13 14 15 16 17 18 19 20 21 22 23 24 25 26 27 28 29 30 31 32 33 34 35 36 37 38 39 40 41 42 43 44 45 46 47 48 49 50

000
ASUS43 KDTX 050910
RWRMI
MICHIGAN HOURLY REGIONAL WEATHER ROUNDUP
NATIONAL WEATHER SERVICE DETROIT/PONTIAC MI
500 AM EDT SUN JUL 05 2015

NOTE: "FAIR" INDICATES FEW OR NO CLOUDS BELOW 12,000 FEET WITH NO
SIGNIFICANT WEATHER AND/OR OBSTRUCTION TO VISIBILITY.

MIZ047>049-052>055-059>063-066>070-074>076-081>083-051000-
SOUTHEAST LOWER MICHIGAN

CITY           SKY/WX    TMP DP  RH WIND       PRES   REMARKS
ADRIAN         CLEAR     58  57  97 NW3       30.10R
ALMA           CLEAR     58  57  99 CALM      30.08S FOG
ANN ARBOR      CLEAR     51  51 100 CALM      30.09R
BAD AXE        CLEAR     56  54  94 CALM      30.07S
CARO           PTCLDY    60  58  94 CALM      30.06S FOG
DETROIT CITY   CLEAR     65  56  72 W3        30.08S
DETROIT        PTCLDY    63  57  81 CALM      30.09S
FLINT          CLEAR     61  57  87 CALM      30.08S FOG
GROSSE ILE     CLEAR     61  57  88 CALM      30.08S
HILLSDALE      CLEAR     57  57 100 CALM      30.10S FOG
HOWELL         CLEAR     57  56  94 CALM      30.09S FOG

CITY           SKY/WX    TMP DP  RH WIND       PRES   REMARKS
JACKSON        CLEAR     57  55  93 CALM      30.10R
LAMBERTVILLE     N/A     58  55  88 CALM      30.09S FOG
LANSING        CLEAR     60  58  92 CALM      30.10R FOG
LAPEER         FAIR      55  54  95 CALM      30.08S FOG
MASON            N/A     55  54  97 CALM      30.09S FOG
MONROE         CLEAR     56  56  98 CALM      30.08S FOG
MT. CLEMENS    CLEAR     62  56  82 W5        30.06S
PONTIAC        CLEAR     60  57  89 CALM      30.09R FOG
PORT HOPE        N/A     58  57  97 SW5       30.04S
PORT HURON       N/A     55  55 100 CALM      30.08S FOG
TRI CITIES     CLEAR     62  58  86 W3        30.07S
MIDLAND        FAIR      57  55  95 CALM      30.07R FOG
TROY           CLEAR     63  58  83 CALM      30.10S HAZE
SAGINAW HB     CLEAR     61  61 100 W3        30.06F
$$
MIZ043>046-050>051-056>058-064>065-071>073-077>080-051000-
SOUTHWEST LOWER MICHIGAN

CITY           SKY/WX    TMP DP  RH WIND       PRES   REMARKS
BATTLE CREEK   CLEAR     60  57  89 CALM      30.10R FOG
BENTON HARBOR  CLEAR     54  52  93 CALM      30.07S FOG
BIG RAPIDS     CLEAR     56  53  91 CALM      30.09R FOG
COLDWATER      CLEAR     56  56  99 SE3       30.09S FOG
FREMONT        FOG       56  56  99 CALM      30.08S VSB 1
HOLLAND        CLEAR     57  56  96 E3        30.08S FOG
GRAND RAPIDS   CLEAR     59  56  89 CALM      30.09R FOG
IONIA          FAIR      57  56  96 CALM      30.08S FOG
KALAMAZOO      CLEAR     59  56  89 CALM      30.09S FOG
LUDINGTON        N/A     56  54  93 CALM      30.07S FOG
MARSHALL       CLEAR     56  55  96 CALM      30.09S FOG
MOUNT PLEASANT FOG       57  56  97 CALM      30.07S VSB 1/4
MUSKEGON       CLEAR     56  54  93 CALM      30.08S FOG
SOUTH HAVEN      N/A     56  55  94 CALM      30.07S FOG
$$
MIZ016>042-051000-
NORTHERN LOWER MICHIGAN

CITY           SKY/WX    TMP DP  RH WIND       PRES   REMARKS
ALPENA         CLEAR     50  48  93 CALM      30.07S
BEAVER ISLAND  FOG       51  50  98 CALM      30.04S VSB 1/4
BELLAIRE       CLEAR     51  50  96 CALM      30.06S FOG
CADILLAC         N/A     52  50  92 CALM      30.08S FOG
CHARLEVOIX     CLEAR     56  55  97 SE3       30.07F FOG
FRANKFORT      CLEAR     55  50  82 CALM      30.06S HAZE
GAYLORD        CLEAR     50  49  96 CALM      30.08S
GRAYLING       FOG       46  45  95 CALM      30.09R VSB 1/4
HARBOR SPRINGS CLEAR     54  53  96 CALM      30.05S FOG
HOUGHTON LAKE  CLEAR     52  51  97 CALM      30.09R FOG
MANISTEE       CLEAR     54  50  87 E3        30.07S
OSCODA         CLEAR     53  52  96 CALM      30.05F
PELLSTON       CLOUDY    49  47  93 CALM      30.05F FOG
ROGERS CITY    CLEAR     56  55  96 CALM      30.07S
TRAVERSE CITY  CLEAR     57  54  89 CALM      30.04S FOG
$$
MIZ007>008-015-051000-
EASTERN UPPER MICHIGAN

CITY           SKY/WX    TMP DP  RH WIND       PRES   REMARKS
KINROSS        CLEAR     52  48  87 CALM      30.05S
MACKINAC ISLAN CLEAR     59  58  96 S6        30.04S
NEWBERRY       CLEAR     52  51  97 S3        30.03S
S. S. MARIE    CLEAR     50  47  89 NE3       30.04F
MUNISING         N/A     60  55  83 S8        29.98F
$$
MIZ004>006-011>014-085-051000-
CENTRAL UPPER MICHIGAN

CITY           SKY/WX    TMP DP  RH WIND       PRES   REMARKS
MANISTIQUE     CLEAR     56  55  97 S5        30.02F FOG
ESCANABA       CLEAR     63  61  94 SE5       30.00S
MENOMINEE      PTCLDY    63  57  82 S6        29.99F
SAWYER-GWINN   CLEAR     58  55  89 S6        30.00F
$$
MIZ001>003-009>011-084-051000-
WESTERN UPPER MICHIGAN

CITY           SKY/WX    TMP DP  RH WIND       PRES   REMARKS
IRON MOUNTAIN  CLEAR     60  58  92 SE5       29.98F FOG
HOUGHTON       CLEAR     56  53  90 S3        29.94S
COPPER HARBOR    N/A     56  51  84 SW13G20   29.92S
IRONWOOD       CLEAR     66  63  88 SW6       29.93R
$$

ABBREVIATIONS USED IN REMARKS
   TC - TEMPERATURE IN CELSIUS
  WCI - WIND CHILL INDEX
   HX - HEAT INDEX
  VSB - VISIBILITY




USA.gov is the U.S. government's official web portal to all federal, state and local government web resources and services.